Flag for U.S.A. Weather past 2 weeks in Baton Rouge, Louisiana, U.S.A.

Now
72 °F

Light rain. Passing clouds.


Feels Like: 68 °F
Forecast: 70 / 87 °F
Wind: 3 mph from West

Location: Baton Rouge Metropolitan - Ryan Field

Current Time: Sep 18, 2014 at 9:43:33 PM

Latest Report: Sep 18, 2014 at 8:53 PM


Visibility: 9 mi

Pressure: 29.91 "Hg

Humidity: 93%

Dew point: 70 °F

Location of Baton RougeLocation

Historic Weather in Baton Rouge — Graph

°F

Baton Rouge temperature yesterday

Maximum temperature yesterday: 88 °F (at 5:53 PM)
Minimum temperature yesterday: 71 °F (at 6:53 AM)
Average temperature yesterday: 79 °F

Past Weeks' High & Low Weather Summary

 TemperatureHumidityPressure
High92 °F (Sep 10, 1:53 PM)97% (Sep 4, 4:53 AM)30.15 "Hg (Sep 4, 4:53 AM)
Low68 °F (Sep 13, 11:53 PM)49% (Sep 10, 4:53 PM)29.86 "Hg (Sep 18, 5:00 PM)
Average79 °F82%30.01 "Hg
* Reported Sep 3 7:53 PM — Sep 18 7:53 PM, Baton Rouge, Weather by CustomWeather, © 2014

Note: Actual official high and low records may vary slightly from our data, if they occured in-between our weather recording intervals... More about our weather records

Advertising

Baton Rouge weather history for previous 24 hours

 ConditionsComfort  
Time TempWeatherWind HumidityBarometerVisibility
7:53 PM
Sep 18
72 °FOvercast.8 mph93%29.88 "Hg8 mi
6:53 PM72 °FThunderstorms. Fog.7 mph93%29.90 "Hg1 mi
5:53 PM81 °FOvercast.3 mph77%29.86 "Hg10 mi
5:00 PM84 °FSunny.3 mph72%29.86 "Hg10 mi
3:53 PM86 °FPartly sunny.6 mph63%29.87 "Hg10 mi
2:53 PM85 °FPassing clouds.7 mph68%29.88 "Hg10 mi
1:53 PM85 °FScattered clouds.7 mph68%29.90 "Hg10 mi
12:53 PM83 °FSunny.6 mph72%29.93 "Hg10 mi
11:53 AM83 °FSunny.5 mph72%29.93 "Hg10 mi
10:53 AM80 °FSunny.6 mph81%29.94 "Hg10 mi
9:53 AM77 °FSunny.6 mph88%29.95 "Hg10 mi
8:53 AM75 °FSunny.3 mph90%29.94 "Hg10 mi
7:53 AM74 °FSunny.3 mph94%29.93 "Hg9 mi
6:53 AM73 °FFog.No wind94%29.92 "Hg5 mi
5:53 AM73 °FClear.No wind94%29.90 "Hg7 mi
4:53 AM73 °FFog.No wind97%29.89 "Hg6 mi
3:53 AM73 °FFog.No wind97%29.89 "Hg6 mi
2:53 AM75 °FClear.No wind94%29.89 "Hg7 mi
1:53 AM74 °FFog.No wind97%29.89 "Hg6 mi
12:53 AM75 °FClear.3 mph94%29.91 "Hg9 mi
11:53 PM
Sep 17
76 °FClear.5 mph91%29.93 "Hg10 mi
10:53 PM77 °FClear.No wind88%29.92 "Hg10 mi
9:53 PM77 °FPassing clouds.No wind90%29.93 "Hg10 mi
Weather by CustomWeather, © 2014

See weather overviewHow to use our weather pages